COSMOS 1275 DEB, 17620

Orbit data source: Space-Track

COSMOS 1275 DEB, 17620 is space debris in LEO originally from a launch on Thu, 04 Jun 1981 UTC launched from the Plesetsk Missile And Space Complex (PKMTR). Debris objects in space refer to the collection of defunct objects orbiting the Earth. Examples of debris include non-operational satellites, rocket bodies, and fragments generated from explosions, collisions, or faulty payload assembly.

Loading next visibility...
Identifier
17620, 1981-053KP
Orbit
LEO
Country
Flag of CISCIS
Related business
Manufacturer
Unknown
Mission
Spacecraft
Bus & Motor
Unknown
Mass
Unknown
Launch date (UTC)
1981-06-04 (44 years ago)
Launch vehicle
Unknown
Launch site
Plesetsk Missile And Space Complex (PKMTR)
Object type
Payload
Rocket body
Debris
Shape & HBR
Unknown shape, 0.1 m
Radar Cross Section
Small (<0.1 m²)

Expand to show TLE details & history
Last TLE update: 13 hours ago

TLE from 13 hours ago
0 COSMOS 1275 DEB
1 17620U 81053KP  25286.47948678  .00007873  00000-0  25355-2 0  9996
2 17620  83.1704 302.3539 0018018 309.0145  50.9442 14.39095508 78133
Epoch: 2025-10-13T11:30Z
TLE epoch observation values (Epoch: 2025-10-13T11:30:27.657Z)
Latitude
-0.00008°
Longitude
107.45698°
Altitude
756.39 km
Speed
7.48 km/s
True Right ascension
20h 09m 24s
True Declination
0° 00' 00"
Sunlit
Object was in daylight at epoch
Visualization orbit readout
Latitude
Unknown
Longitude
Unknown
Altitude
Unknown
Speed
Unknown
Apparent Right ascension
Unknown
Apparent Declination
Unknown
Sunlit
N/A
Visualization observer readout
Local Sidereal Time
19:14:04
Azimuth
Unknown
Elevation
Unknown
Doppler factor
Unknown
Orbital elements
Apogee altitude
771.399 km
Perigee altitude
745.681 km
Semi-major axis
7,136.677 km
Eccentricity
0.0018
Inclination
83.1704°
RAAN
302.3539°
Arg. of periapsis
309.0145°
True anomaly
51.10476°
Mean anomaly
50.9442°
Eccentric anomaly
51.02446°
Mean motion
3.59997 °/min
Orbital period
100 mins
BSTAR
0.0025355
Loading maneuver chart data...
Computing Atmospheric mass density...
Loading historical data...
Loading historical data...
Loading historical data...
Loading historical data...
Loading historical data...
Loading historical data...
Loading historical data...

Documentation

Showing up to 5 results
|